Location: ??????????
(54.8537°N, 38.8755°E)
Time: 22:03:15
(UTC+00:00)

Tiros 1 - Pass Details

Date: 15 September 2024
Orbit: 623 x 654 km, 48.4° (Epoch: 09 October)

Event Time Altitude Azimuth Distance (km) Brightness Sun altitude
Rises 16:35:05 0° 264° (W) 2,908 11.9 -8.5°
Reaches altitude 10° 16:37:32 10° 255° (WSW) 2,004 10.7 -8.9°
Maximum altitude 16:41:41 34° 191° (S) 1,042 8.2 -9.4°
Enters shadow 16:45:32 12° 129° (SE) 1,896 9.0 -10.0°
Drops below altitude 10° 16:45:53 10° 127° (SE) 2,018 - -10.0°
Sets 16:48:22 0° 118° (ESE) 2,931 - -10.4°
